SCP
-0 -0 -0 -0 -0 -0 -0 -0 -0 -0 -0 0 0 0 0 0 0 0 0 0 0 0 0 0 0 0 0 0 0 0 0 0 0 0 0 0 0 0 0 0 0 0 0 0 0
0 -0 -0 -0 -0 -0 -0 -0 -0 0 0 0 0 0 0 0 0 0 0 0 0 0 0 0 0 0 0 0 0 0 0 0 0 0 0 0 0 0 0 0 0 0 0 0 0
-0 0 -0 -0 -0 -0 -0 0 0 0 0 0 0 0 0 0 0 0 0 0 0 0 0 0 0 0 0 0 0 0 0 0 0 0 0 0 0 0 0 0 0 0 0 0 0
0 0 0 -0 0 -0 -0 0 0 0 0 0 -0 0 -0 0 0 0 0 0 0 0 0 0 0 0 0 0 0 0 0 0 0 0 0 0 0 0 0 0 0 0 0 0 0
0 -0 0 -0 -0 -0 -0 -0 -0 -0 -0 -0 0 0 0 0 0 0 0 0 0 0 0 0 0 0 0 0 0 0 0 0 0 -0 0 -0 -0 0 -0 0 0 0 0 0 0
0 0 -0 0 0 -0 -0 -0 0 0 0 0 0 0 0 0 0 0 0 0 0 0 0 0 0 0 0 0 0 0 0 0 0 0 0 0 0 0 0 0 0 0 0 0 0
0 -0 -0 -0 -0 -0 -0 -0 -0 -0 0 0 0 0 0 0 0 0 0 0 0 0 0 0 0 0 0 0 0 0 0 0 0 0 0 0 0 0 0 0 0 0 0 0 0
-0 -0 -0 -0 -0 -0 -0 -0 -0 -0 0 0 0 0 0 0 0 0 0 0 0 0 0 0 0 0 0 0 0 0 0 0 0 0 0 0 0 0 0 0 0 0 0 0 0
-0 -0 -0 -0 -0 -0 -0 -0 0 0 0 0 0 0 0 0 0 0 0 0 0 0 0 0 0 0 0 0 0 0 0 0 0 0 0 0 0 0 0 0 0 0 0 0 0
-0 -0 -0 -0 -0 -0 0 0 0 0 0 0 0 0 0 0 0 0 0 0 0 0 0 0 0 0 0 0 0 0 0 0 0 0 0 0 0 0 0 0 0 0 0 0 0
0 -0 -0 -0 -0 0 0 0 0 0 0 0 0 0 0 0 0 0 0 0 0 0 0 0 0 0 0 0 0 0 0 0 0 0 0 0 0 0 0 0 0 0 0 0 0
0 -0 -0 -0 0 0 0 0 0 0 0 0 0 -0 0 0 0 0 0 0 0 0 0 0 0 0 0 0 0 0 0 0 0 0 0 0 0 0 0 0 0 0 0 0 0
0 0 -0 0 0 0 0 0 0 0 0 0 0 0 0 0 0 0 0 0 0 0 0 0 0 0 0 0 0 0 0 0 0 0 0 0 0 0 0 0 0 0 0 0 0
0 0 0 0 0 0 0 0 0 0 0 0 0 0 0 0 0 0 0 0 0 0 0 0 0 0 0 0 0 0 0 0 0 0 0 0 0 0 0 0 0 0 0 0 0
0 0 0 0 0 0 0 0 0 0 0 0 0 0 0 0 0 0 0 0 0 0 0 0 0 0 0 0 0 0 0 0 0 0 0 0 0 0 0 0 -0 0 0 0 0
0 0 0 0 0 0 0 0 0 0 0 0 0 0 0 0 0 0 0 0 0 0 0 0 0 0 0 0 0 0 0 0 0 0 0 0 0 0 0 0 0 -0 0 0 0
0 0 0 0 0 0 0 0 0 0 0 0 0 0 0 0 0 0 0 0 0 0 0 0 0 0 0 0 0 0 0 0 0 0 0 0 0 0 0 0 -0 0 -0 -0 0
0 0 0 0 0 0 0 0 0 0 0 0 0 0 0 0 0 0 0 0 0 0 0 0 -0 0 0 0 0 0 0 0 0 0 0 0 0 0 0 -0 -0 0 0 0 0
0 0 0 0 0 0 0 0 0 0 0 0 0 0 0 0 0 0 0 0 0 0 0 0 0 0 0 0 0 0 0 0 0 0 0 0 0 0 0 -0 0 0 0 0 0
0 0 0 0 0 0 0 0 0 0 0 0 0 0 0 0 0 0 0 0 0 0 0 0 0 0 0 0 0 0 0 0 0 0 0 0 0 0 0 0 0 -0 -0 -0 -0
0 0 0 0 0 0 0 0 0 0 0 0 0 0 0 0 0 0 0 0 0 0 0 0 0 0 0 0 0 0 0 0 0 0 0 0 0 0 0 0 -0 -0 -0 -0 -0
0 0 0 0 0 0 0 0 0 0 0 0 0 0 0 0 0 0 0 0 0 0 0 0 0 0 0 0 0 0 0 0 0 0 0 0 0 0 0 0 0 -0 -0 -0 -0
0 0 0 0 0 0 0 0 0 0 0 0 0 0 0 0 0 0 0 0 0 0 0 0 0 0 0 0 0 0 -0 0 0 0 0 0 0 0 0 0 0 -0 -0 -0 -0
0 0 0 0 0 0 0 0 0 0 0 0 0 0 0 0 0 0 0 0 0 0 0 0 0 0 0 0 0 0 -0 0 0 0 0 0 0 0 0 0 0 0 -0 -0 -0
0 0 0 0 0 0 0 0 0 0 0 0 0 0 0 0 0 0 0 0 0 0 0 0 0 0 0 0 0 0 0 0 0 0 0 0 0 0 0 0 0 0 0 -0 -0
0 0 0 0 0 0 0 0 0 0 0 0 0 0 0 0 0 0 0 0 0 0 0 0 0 0 -0 -0 0 0 0 0 0 0 0 0 0 0 0 0 0 0 0 0 0
0 0 0 0 0 0 0 0 0 0 0 0 0 0 0 0 0 0 0 0 0 0 0 0 0 0 0 -0 0 0 0 0 0 0 0 0 0 0 0 0 0 0 0 0 0
Wind_Speed_500mb
20 22 22 23 26 20 23 28 32 31 29 27 25 21 23 15 9 20 30 34 34 32 31 27 17 18 9 8 7 2 4 4 7 4 10 17 12 16 29 29 23 40 30 48 41
17 24 28 29 24 20 26 27 22 23 27 26 23 19 17 9 10 35 33 30 34 36 32 35 35 27 10 16 10 7 5 12 7 4 8 17 20 31 23 34 26 65 65 53 59
24 25 29 30 21 20 24 26 28 27 27 24 19 18 11 4 5 21 29 28 30 34 26 21 20 18 11 14 13 10 8 3 13 26 32 24 37 21 14 23 27 48 72 80 79
24 23 28 30 25 25 26 28 28 25 24 22 19 17 7 6 3 21 28 31 31 31 23 22 22 12 8 9 11 11 15 14 20 26 24 18 35 26 42 58 67 63 68 77 85
27 29 30 26 25 27 28 28 23 21 20 18 17 15 8 13 12 22 29 32 33 32 28 25 23 15 6 10 21 8 12 19 33 56 47 58 49 35 65 84 74 75 72 76 81
32 29 30 31 30 27 25 22 21 19 16 14 14 14 13 11 16 19 38 34 28 27 20 20 15 16 11 5 2 11 30 43 47 59 43 44 44 16 59 49 55 56 63 65 62
30 31 31 30 25 23 23 24 21 16 14 14 11 20 26 14 15 25 33 21 28 23 21 19 18 16 16 10 15 30 21 16 24 15 12 16 12 25 69 59 53 61 61 56 54
28 26 27 26 25 24 23 22 15 13 11 14 12 8 9 19 25 29 22 20 23 19 16 14 10 13 5 15 15 10 7 12 7 16 14 9 24 14 40 53 64 57 66 68 59
28 29 25 24 25 26 25 15 8 13 9 12 13 7 5 14 37 22 31 29 19 25 18 8 9 4 6 8 9 12 11 17 16 7 12 17 28 5 13 49 72 81 72 73 63
28 27 24 24 25 25 25 10 6 20 10 5 15 4 14 26 23 27 29 29 15 23 6 9 6 5 7 8 6 19 25 27 32 10 16 31 54 47 65 61 64 72 73 65 63
27 26 24 25 24 23 24 6 6 2 23 14 11 8 19 38 5 29 37 27 15 7 7 7 8 5 12 13 15 21 32 42 39 35 39 34 43 41 47 49 48 62 60 56 60
26 25 21 23 20 22 20 11 12 4 2 13 14 9 21 37 11 24 33 18 12 4 16 11 5 11 10 16 15 22 40 45 36 19 21 35 44 49 44 13 26 38 34 33 36
25 24 20 21 18 21 22 22 13 3 3 7 12 10 18 26 12 23 28 23 3 5 6 6 10 14 7 19 17 13 21 31 37 35 36 41 28 15 8 7 37 46 48 51 51
26 24 19 19 13 20 15 22 10 4 9 13 9 11 16 19 6 20 22 11 4 3 10 12 9 8 17 12 10 24 15 36 43 30 14 12 13 8 20 21 33 50 56 57 62
24 21 15 16 14 14 16 17 3 1 7 6 11 14 15 12 16 17 16 7 6 7 10 12 8 10 11 13 20 20 33 44 41 28 21 12 6 6 12 28 44 43 70 77 76
21 20 14 12 14 14 17 11 2 11 8 10 9 15 13 15 11 22 14 20 6 6 3 14 14 6 8 23 23 20 19 31 4 3 3 8 4 3 10 24 39 47 62 67 74
29 19 13 12 11 12 16 6 10 10 6 13 7 10 1 9 10 14 9 19 9 14 14 16 7 8 9 15 9 32 14 9 12 9 9 7 8 7 5 21 25 39 58 64 70
33 21 14 10 8 9 13 10 8 5 11 3 5 6 5 13 5 10 5 8 6 3 5 9 16 7 14 3 14 15 6 1 12 8 21 8 5 5 6 38 45 50 57 59 68
29 19 17 10 3 7 5 7 13 13 7 4 4 11 10 5 2 10 4 3 4 5 6 7 12 10 6 7 4 17 15 12 10 9 7 7 7 9 36 39 46 51 55 56 63
32 19 16 13 6 2 5 10 7 5 8 6 7 5 4 8 9 9 4 6 4 6 6 6 12 7 14 13 9 10 10 11 7 12 12 11 8 9 40 47 39 40 54 57 61
33 11 13 12 9 6 5 10 7 11 6 7 9 5 8 5 4 3 7 7 3 2 8 6 5 14 3 4 5 11 10 6 4 3 6 9 9 11 39 37 37 32 49 55 56
24 5 14 15 5 3 4 7 4 7 7 4 6 7 10 7 4 4 8 12 4 3 1 5 5 11 16 8 2 8 14 5 5 10 7 5 8 28 34 29 42 44 48 51 45
18 12 23 26 6 3 3 3 6 7 8 9 7 8 7 8 2 7 6 7 3 5 4 3 5 11 16 9 6 10 27 20 10 6 6 8 11 21 35 35 46 45 52 54 47
20 6 6 18 6 6 8 7 6 11 8 9 6 5 6 3 6 7 5 5 5 2 5 5 4 10 9 10 4 11 22 20 9 3 17 8 22 29 34 37 43 49 52 53 52
15 8 13 7 10 11 7 11 8 9 11 15 3 12 12 5 2 8 7 8 4 5 5 6 6 5 13 21 7 11 9 16 9 14 6 23 26 18 33 30 41 50 54 55 57
21 15 15 11 6 18 10 12 18 8 16 9 9 10 15 11 15 11 7 5 7 4 5 2 5 2 9 10 14 9 9 13 9 11 7 21 9 25 37 46 52 50 53 52 56
27 24 13 22 10 9 11 13 18 21 22 11 22 9 14 29 32 27 16 11 6 4 2 4 4 6 10 11 8 8 8 4 6 4 6 11 12 29 13 38 50 58 57 58 61
Wind_Direction_500mb
5 359 1 352 354 11 13 7 358 354 354 348 5 6 2 23 45 20 31 14 3 6 357 347 343 2 7 47 43 112 76 251 268 236 298 322 359 309 314 279 298 306 282 302 312
351 352 347 346 350 355 1 348 339 332 335 344 353 4 357 26 93 35 25 14 14 0 357 7 10 14 36 7 16 62 137 226 214 232 265 297 296 304 303 299 297 304 293 288 287
331 337 343 350 354 349 351 339 339 340 340 346 357 5 1 34 91 20 17 12 359 1 3 6 13 17 30 2 5 334 228 314 266 302 313 305 301 295 263 276 273 283 291 290 292
341 343 346 345 344 339 339 338 337 336 338 346 356 7 36 89 69 14 7 358 348 355 358 13 16 24 29 357 349 334 278 291 298 311 321 295 285 279 282 271 274 280 287 290 292
347 342 343 349 345 339 341 344 348 349 347 350 360 15 97 77 49 5 355 352 340 348 5 14 22 8 13 321 320 223 292 303 297 297 293 290 278 278 274 276 280 280 283 287 290
349 348 351 349 348 351 355 359 354 349 353 2 17 49 92 81 24 355 339 330 337 353 358 10 359 341 297 287 275 302 300 293 289 283 280 268 271 281 272 286 291 288 285 289 289
350 348 354 356 358 356 354 349 346 356 9 15 57 103 73 58 17 341 344 6 4 337 338 347 353 359 331 308 311 293 294 291 272 268 255 301 270 223 267 282 281 288 293 293 290
352 352 356 358 355 351 350 349 0 20 25 40 45 103 87 22 355 334 12 352 359 10 356 351 339 314 262 302 308 323 314 328 313 297 269 137 263 265 272 275 279 283 286 285 283
357 358 1 356 355 353 352 354 30 17 41 44 40 65 51 4 351 22 359 354 8 6 357 343 292 290 310 342 354 12 294 288 311 267 270 200 288 195 278 286 283 282 276 275 275
355 357 359 359 358 0 357 6 37 32 9 12 20 75 12 346 353 13 6 355 353 353 28 360 22 31 11 64 289 292 297 283 285 279 268 275 275 280 281 275 272 273 274 272 275
353 354 355 355 359 4 12 9 352 2 45 58 18 354 332 349 28 14 7 351 345 22 24 12 30 245 265 220 246 279 278 283 280 283 284 283 276 287 286 282 287 279 274 275 278
349 347 350 349 358 6 11 55 40 359 56 36 21 11 352 351 332 11 2 12 12 357 340 16 232 220 270 268 256 262 283 289 288 264 291 288 284 288 291 328 20 14 3 345 325
340 340 346 348 348 357 17 34 19 23 60 16 11 356 351 345 340 338 345 341 100 344 57 288 255 317 265 297 292 249 268 289 283 307 295 275 280 279 87 61 8 359 349 342 331
332 332 341 349 350 346 9 5 1 113 71 311 346 11 346 342 312 352 353 328 308 255 324 251 279 298 304 267 291 309 254 298 295 310 301 40 296 36 346 348 348 344 342 333 327
318 318 325 338 344 345 346 353 35 108 20 305 324 342 350 38 334 7 357 313 279 269 76 258 312 0 311 298 331 270 312 291 287 283 289 318 243 14 9 348 340 337 335 331 329
295 298 302 318 338 335 338 356 106 41 265 340 332 355 11 9 359 323 349 10 286 332 284 253 297 256 243 296 296 315 306 316 21 139 324 262 157 30 17 336 325 328 329 328 328
276 270 275 296 328 331 338 348 30 115 343 308 332 5 99 317 332 12 354 26 29 12 4 330 284 283 264 306 317 351 341 350 358 7 239 284 294 226 18 357 332 325 326 328 331
260 245 255 274 304 329 343 48 86 215 231 301 19 340 25 4 355 332 11 21 35 87 24 32 335 5 345 343 297 338 29 289 311 317 298 337 276 267 309 355 338 332 330 334 341
246 230 236 232 290 326 326 52 208 198 165 146 71 56 315 342 179 6 5 242 216 161 126 357 278 303 200 287 60 312 1 289 256 234 289 286 288 324 341 349 345 340 341 340 343
237 215 247 219 154 296 65 240 192 218 131 107 138 134 226 285 5 47 353 245 329 190 146 241 290 240 296 353 358 151 303 356 335 350 313 308 315 291 338 337 342 343 342 342 347
219 193 215 188 177 145 172 234 221 197 159 133 173 155 217 254 207 287 251 277 187 312 174 143 211 288 334 29 286 352 355 337 232 319 299 306 309 328 343 336 335 337 342 342 351
196 147 172 167 121 312 150 196 190 162 168 138 136 151 176 197 265 254 244 214 160 208 205 212 250 279 253 234 142 143 3 298 303 311 258 248 290 9 335 335 336 341 347 354 5
178 152 174 172 156 218 251 285 228 163 195 165 185 207 157 198 328 222 246 264 315 152 165 150 308 323 350 28 11 24 347 341 285 276 290 317 298 16 341 350 351 353 356 4 12
166 125 140 184 207 182 158 217 217 213 199 171 144 141 162 266 208 269 261 282 354 123 37 213 226 190 209 225 70 312 337 355 324 353 312 292 306 341 2 352 353 360 5 11 20
180 159 190 175 232 187 194 144 139 206 218 189 31 210 176 203 268 230 243 293 64 4 64 93 207 297 266 267 176 242 281 347 360 328 335 314 326 344 4 356 351 3 12 18 24
173 159 169 154 163 157 191 213 188 195 163 215 196 204 179 195 198 207 177 206 236 1 76 55 269 23 294 302 210 249 291 357 310 318 324 321 325 0 7 6 8 8 10 19 25
195 174 163 158 164 152 209 198 206 162 211 191 198 140 198 239 249 264 250 264 245 136 97 67 89 47 276 340 7 334 233 201 244 310 266 355 315 334 344 16 10 3 12 23 30
Wind_Speed_850mb
20 22 22 23 26 20 23 28 32 31 29 27 25 21 23 15 9 20 30 34 34 32 31 27 17 18 9 8 7 2 4 4 7 4 10 17 12 16 29 29 23 40 30 48 41
17 24 28 29 24 20 26 27 22 23 27 26 23 19 17 9 10 35 33 30 34 36 32 35 35 27 10 16 10 7 5 12 7 4 8 17 20 31 23 34 26 65 65 53 59
24 25 29 30 21 20 24 26 28 27 27 24 19 18 11 4 5 21 29 28 30 34 26 21 20 18 11 14 13 10 8 3 13 26 32 24 37 21 14 23 27 48 72 80 79
24 23 28 30 25 25 26 28 28 25 24 22 19 17 7 6 3 21 28 31 31 31 23 22 22 12 8 9 11 11 15 14 20 26 24 18 35 26 42 58 67 63 68 77 85
27 29 30 26 25 27 28 28 23 21 20 18 17 15 8 13 12 22 29 32 33 32 28 25 23 15 6 10 21 8 12 19 33 56 47 58 49 35 65 84 74 75 72 76 81
32 29 30 31 30 27 25 22 21 19 16 14 14 14 13 11 16 19 38 34 28 27 20 20 15 16 11 5 2 11 30 43 47 59 43 44 44 16 59 49 55 56 63 65 62
30 31 31 30 25 23 23 24 21 16 14 14 11 20 26 14 15 25 33 21 28 23 21 19 18 16 16 10 15 30 21 16 24 15 12 16 12 25 69 59 53 61 61 56 54
28 26 27 26 25 24 23 22 15 13 11 14 12 8 9 19 25 29 22 20 23 19 16 14 10 13 5 15 15 10 7 12 7 16 14 9 24 14 40 53 64 57 66 68 59
28 29 25 24 25 26 25 15 8 13 9 12 13 7 5 14 37 22 31 29 19 25 18 8 9 4 6 8 9 12 11 17 16 7 12 17 28 5 13 49 72 81 72 73 63
28 27 24 24 25 25 25 10 6 20 10 5 15 4 14 26 23 27 29 29 15 23 6 9 6 5 7 8 6 19 25 27 32 10 16 31 54 47 65 61 64 72 73 65 63
27 26 24 25 24 23 24 6 6 2 23 14 11 8 19 38 5 29 37 27 15 7 7 7 8 5 12 13 15 21 32 42 39 35 39 34 43 41 47 49 48 62 60 56 60
26 25 21 23 20 22 20 11 12 4 2 13 14 9 21 37 11 24 33 18 12 4 16 11 5 11 10 16 15 22 40 45 36 19 21 35 44 49 44 13 26 38 34 33 36
25 24 20 21 18 21 22 22 13 3 3 7 12 10 18 26 12 23 28 23 3 5 6 6 10 14 7 19 17 13 21 31 37 35 36 41 28 15 8 7 37 46 48 51 51
26 24 19 19 13 20 15 22 10 4 9 13 9 11 16 19 6 20 22 11 4 3 10 12 9 8 17 12 10 24 15 36 43 30 14 12 13 8 20 21 33 50 56 57 62
24 21 15 16 14 14 16 17 3 1 7 6 11 14 15 12 16 17 16 7 6 7 10 12 8 10 11 13 20 20 33 44 41 28 21 12 6 6 12 28 44 43 70 77 76
21 20 14 12 14 14 17 11 2 11 8 10 9 15 13 15 11 22 14 20 6 6 3 14 14 6 8 23 23 20 19 31 4 3 3 8 4 3 10 24 39 47 62 67 74
29 19 13 12 11 12 16 6 10 10 6 13 7 10 1 9 10 14 9 19 9 14 14 16 7 8 9 15 9 32 14 9 12 9 9 7 8 7 5 21 25 39 58 64 70
33 21 14 10 8 9 13 10 8 5 11 3 5 6 5 13 5 10 5 8 6 3 5 9 16 7 14 3 14 15 6 1 12 8 21 8 5 5 6 38 45 50 57 59 68
29 19 17 10 3 7 5 7 13 13 7 4 4 11 10 5 2 10 4 3 4 5 6 7 12 10 6 7 4 17 15 12 10 9 7 7 7 9 36 39 46 51 55 56 63
32 19 16 13 6 2 5 10 7 5 8 6 7 5 4 8 9 9 4 6 4 6 6 6 12 7 14 13 9 10 10 11 7 12 12 11 8 9 40 47 39 40 54 57 61
33 11 13 12 9 6 5 10 7 11 6 7 9 5 8 5 4 3 7 7 3 2 8 6 5 14 3 4 5 11 10 6 4 3 6 9 9 11 39 37 37 32 49 55 56
24 5 14 15 5 3 4 7 4 7 7 4 6 7 10 7 4 4 8 12 4 3 1 5 5 11 16 8 2 8 14 5 5 10 7 5 8 28 34 29 42 44 48 51 45
18 12 23 26 6 3 3 3 6 7 8 9 7 8 7 8 2 7 6 7 3 5 4 3 5 11 16 9 6 10 27 20 10 6 6 8 11 21 35 35 46 45 52 54 47
20 6 6 18 6 6 8 7 6 11 8 9 6 5 6 3 6 7 5 5 5 2 5 5 4 10 9 10 4 11 22 20 9 3 17 8 22 29 34 37 43 49 52 53 52
15 8 13 7 10 11 7 11 8 9 11 15 3 12 12 5 2 8 7 8 4 5 5 6 6 5 13 21 7 11 9 16 9 14 6 23 26 18 33 30 41 50 54 55 57
21 15 15 11 6 18 10 12 18 8 16 9 9 10 15 11 15 11 7 5 7 4 5 2 5 2 9 10 14 9 9 13 9 11 7 21 9 25 37 46 52 50 53 52 56
27 24 13 22 10 9 11 13 18 21 22 11 22 9 14 29 32 27 16 11 6 4 2 4 4 6 10 11 8 8 8 4 6 4 6 11 12 29 13 38 50 58 57 58 61
Wind_Direction_850mb
5 359 1 352 354 11 13 7 358 354 354 348 5 6 2 23 45 20 31 14 3 6 357 347 343 2 7 47 43 112 76 251 268 236 298 322 359 309 314 279 298 306 282 302 312
351 352 347 346 350 355 1 348 339 332 335 344 353 4 357 26 93 35 25 14 14 0 357 7 10 14 36 7 16 62 137 226 214 232 265 297 296 304 303 299 297 304 293 288 287
331 337 343 350 354 349 351 339 339 340 340 346 357 5 1 34 91 20 17 12 359 1 3 6 13 17 30 2 5 334 228 314 266 302 313 305 301 295 263 276 273 283 291 290 292
341 343 346 345 344 339 339 338 337 336 338 346 356 7 36 89 69 14 7 358 348 355 358 13 16 24 29 357 349 334 278 291 298 311 321 295 285 279 282 271 274 280 287 290 292
347 342 343 349 345 339 341 344 348 349 347 350 360 15 97 77 49 5 355 352 340 348 5 14 22 8 13 321 320 223 292 303 297 297 293 290 278 278 274 276 280 280 283 287 290
349 348 351 349 348 351 355 359 354 349 353 2 17 49 92 81 24 355 339 330 337 353 358 10 359 341 297 287 275 302 300 293 289 283 280 268 271 281 272 286 291 288 285 289 289
350 348 354 356 358 356 354 349 346 356 9 15 57 103 73 58 17 341 344 6 4 337 338 347 353 359 331 308 311 293 294 291 272 268 255 301 270 223 267 282 281 288 293 293 290
352 352 356 358 355 351 350 349 0 20 25 40 45 103 87 22 355 334 12 352 359 10 356 351 339 314 262 302 308 323 314 328 313 297 269 137 263 265 272 275 279 283 286 285 283
357 358 1 356 355 353 352 354 30 17 41 44 40 65 51 4 351 22 359 354 8 6 357 343 292 290 310 342 354 12 294 288 311 267 270 200 288 195 278 286 283 282 276 275 275
355 357 359 359 358 0 357 6 37 32 9 12 20 75 12 346 353 13 6 355 353 353 28 360 22 31 11 64 289 292 297 283 285 279 268 275 275 280 281 275 272 273 274 272 275
353 354 355 355 359 4 12 9 352 2 45 58 18 354 332 349 28 14 7 351 345 22 24 12 30 245 265 220 246 279 278 283 280 283 284 283 276 287 286 282 287 279 274 275 278
349 347 350 349 358 6 11 55 40 359 56 36 21 11 352 351 332 11 2 12 12 357 340 16 232 220 270 268 256 262 283 289 288 264 291 288 284 288 291 328 20 14 3 345 325
340 340 346 348 348 357 17 34 19 23 60 16 11 356 351 345 340 338 345 341 100 344 57 288 255 317 265 297 292 249 268 289 283 307 295 275 280 279 87 61 8 359 349 342 331
332 332 341 349 350 346 9 5 1 113 71 311 346 11 346 342 312 352 353 328 308 255 324 251 279 298 304 267 291 309 254 298 295 310 301 40 296 36 346 348 348 344 342 333 327
318 318 325 338 344 345 346 353 35 108 20 305 324 342 350 38 334 7 357 313 279 269 76 258 312 0 311 298 331 270 312 291 287 283 289 318 243 14 9 348 340 337 335 331 329
295 298 302 318 338 335 338 356 106 41 265 340 332 355 11 9 359 323 349 10 286 332 284 253 297 256 243 296 296 315 306 316 21 139 324 262 157 30 17 336 325 328 329 328 328
276 270 275 296 328 331 338 348 30 115 343 308 332 5 99 317 332 12 354 26 29 12 4 330 284 283 264 306 317 351 341 350 358 7 239 284 294 226 18 357 332 325 326 328 331
260 245 255 274 304 329 343 48 86 215 231 301 19 340 25 4 355 332 11 21 35 87 24 32 335 5 345 343 297 338 29 289 311 317 298 337 276 267 309 355 338 332 330 334 341
246 230 236 232 290 326 326 52 208 198 165 146 71 56 315 342 179 6 5 242 216 161 126 357 278 303 200 287 60 312 1 289 256 234 289 286 288 324 341 349 345 340 341 340 343
237 215 247 219 154 296 65 240 192 218 131 107 138 134 226 285 5 47 353 245 329 190 146 241 290 240 296 353 358 151 303 356 335 350 313 308 315 291 338 337 342 343 342 342 347
219 193 215 188 177 145 172 234 221 197 159 133 173 155 217 254 207 287 251 277 187 312 174 143 211 288 334 29 286 352 355 337 232 319 299 306 309 328 343 336 335 337 342 342 351
196 147 172 167 121 312 150 196 190 162 168 138 136 151 176 197 265 254 244 214 160 208 205 212 250 279 253 234 142 143 3 298 303 311 258 248 290 9 335 335 336 341 347 354 5
178 152 174 172 156 218 251 285 228 163 195 165 185 207 157 198 328 222 246 264 315 152 165 150 308 323 350 28 11 24 347 341 285 276 290 317 298 16 341 350 351 353 356 4 12
166 125 140 184 207 182 158 217 217 213 199 171 144 141 162 266 208 269 261 282 354 123 37 213 226 190 209 225 70 312 337 355 324 353 312 292 306 341 2 352 353 360 5 11 20
180 159 190 175 232 187 194 144 139 206 218 189 31 210 176 203 268 230 243 293 64 4 64 93 207 297 266 267 176 242 281 347 360 328 335 314 326 344 4 356 351 3 12 18 24
173 159 169 154 163 157 191 213 188 195 163 215 196 204 179 195 198 207 177 206 236 1 76 55 269 23 294 302 210 249 291 357 310 318 324 321 325 0 7 6 8 8 10 19 25
195 174 163 158 164 152 209 198 206 162 211 191 198 140 198 239 249 264 250 264 245 136 97 67 89 47 276 340 7 334 233 201 244 310 266 355 315 334 344 16 10 3 12 23 30